User: anonymous   Login
Location: Unspecified
(0.0000°N, 0.0000°E)
Time: 10:16:55
(UTC+00:00)
Language:

CICERO 7 - Orbit

View from above orbital plane
View from above orbital plane
View from above satellite
View from above satellite

Ground track
Ground track

The orbit data is extracted from the following two-line orbital elements,

1 43143U 18004AJ  19107.79132281 +.00001471 +00000-0 +63564-4 0  9990
2 43143 097.4927 176.1013 0009187 116.2246 243.9937 15.24058265070104
Epoch (UTC): 17 April 2019 18:59:30
Eccentricity: 0.0009187
inclination: 97.4927°
perigee height: 487 km
apogee height: 500 km
right ascension of ascending node: 176.1013°
argument of perigee: 116.2246°
revolutions per day: 15.24058265
mean anomaly at epoch: 243.9937°
orbit number at epoch: 7010

The dashed part of the orbit path shows where the satellite is in the earth's shadow,  

DLR